Time,TemperatureF,DewpointF,PressureIn,WindDirection,WindDirectionDegrees,WindSpeedMPH,WindSpeedGustMPH,Humidity,HourlyPrecipIn,Conditions,Clouds,dailyrainin,SoftwareType,DateUTC
2013-02-01 01:36:00,22.9,19.0,30.10,WNW,282,10.0,-999.0,85,-99.99,,,0.00,weatherlink.com 1.10,2013-02-01 06:36:00,
2013-02-01 01:47:00,22.5,18.0,30.12,North,11,17.0,-999.0,84,-99.99,,,0.00,weatherlink.com 1.10,2013-02-01 06:47:00,
2013-02-01 03:19:00,17.5,10.0,30.22,NNW,333,6.0,-999.0,71,-99.99,,,0.00,weatherlink.com 1.10,2013-02-01 08:19:00,
2013-02-01 03:33:00,16.9,9.0,30.24,WNW,298,11.0,-999.0,71,-99.99,,,0.00,weatherlink.com 1.10,2013-02-01 08:33:00,
2013-02-01 03:48:00,15.6,6.0,30.25,NW,314,10.0,-999.0,66,-99.99,,,0.00,weatherlink.com 1.10,2013-02-01 08:48:00,
2013-02-01 04:03:00,15.3,5.0,30.26,WNW,301,18.0,-999.0,64,-99.99,,,0.00,weatherlink.com 1.10,2013-02-01 09:03:00,
2013-02-01 04:18:00,14.8,5.0,30.27,NW,326,8.0,-999.0,66,-99.99,,,0.00,weatherlink.com 1.10,2013-02-01 09:18:00,
2013-02-01 04:33:00,14.5,5.0,30.27,NNW,330,13.0,-999.0,66,-99.99,,,0.00,weatherlink.com 1.10,2013-02-01 09:33:00,
2013-02-01 04:48:00,14.4,4.0,30.27,WNW,296,5.0,-999.0,64,-99.99,,,0.00,weatherlink.com 1.10,2013-02-01 09:48:00,
2013-02-01 05:03:00,14.2,4.0,30.28,West,281,8.0,-999.0,63,-99.99,,,0.00,weatherlink.com 1.10,2013-02-01 10:03:00,
2013-02-01 05:18:00,13.8,4.0,30.29,NW,324,5.0,-999.0,64,-99.99,,,0.00,weatherlink.com 1.10,2013-02-01 10:18:00,
2013-02-01 05:33:00,13.5,4.0,30.29,NW,321,4.0,-999.0,65,-99.99,,,0.00,weatherlink.com 1.10,2013-02-01 10:33:00,
2013-02-01 05:48:00,13.4,4.0,30.30,NW,311,3.0,-999.0,65,-99.99,,,0.00,weatherlink.com 1.10,2013-02-01 10:48:00,
2013-02-01 06:03:00,13.1,6.0,30.31,NW,311,4.0,-999.0,74,-99.99,,,0.00,weatherlink.com 1.10,2013-02-01 11:03:00,
2013-02-01 06:19:00,12.9,4.0,30.32,NW,311,3.0,-999.0,67,-99.99,,,0.00,weatherlink.com 1.10,2013-02-01 11:19:00,
2013-02-01 06:34:00,12.4,4.0,30.32,NW,311,3.0,-999.0,68,-99.99,,,0.00,weatherlink.com 1.10,2013-02-01 11:34:00,
2013-02-01 06:49:00,12.2,4.0,30.33,NW,311,1.0,-999.0,70,-99.99,,,0.00,weatherlink.com 1.10,2013-02-01 11:49:00,
2013-02-01 07:04:00,12.2,4.0,30.34,WNW,286,1.0,-999.0,70,-99.99,,,0.00,weatherlink.com 1.10,2013-02-01 12:04:00,
2013-02-01 07:19:00,12.1,4.0,30.35,NW,323,7.0,-999.0,71,-99.99,,,0.00,weatherlink.com 1.10,2013-02-01 12:19:00,
2013-02-01 07:34:00,12.1,4.0,30.35,NW,321,2.0,-999.0,71,-99.99,,,0.00,weatherlink.com 1.10,2013-02-01 12:34:00,
2013-02-01 07:49:00,12.2,4.0,30.36,NNW,332,7.0,-999.0,69,-99.99,,,0.00,weatherlink.com 1.10,2013-02-01 12:49:00,
2013-02-01 08:04:00,12.1,4.0,30.37,WNW,303,5.0,-999.0,69,-99.99,,,0.00,weatherlink.com 1.10,2013-02-01 13:04:00,
2013-02-01 08:19:00,12.1,4.0,30.37,NW,315,3.0,-999.0,69,-99.99,,,0.00,weatherlink.com 1.10,2013-02-01 13:19:00,
2013-02-01 08:34:00,12.4,4.0,30.38,NW,306,3.0,-999.0,69,-99.99,,,0.00,weatherlink.com 1.10,2013-02-01 13:34:00,
2013-02-01 08:49:00,12.6,4.0,30.39,NW,310,5.0,-999.0,69,-99.99,,,0.00,weatherlink.com 1.10,2013-02-01 13:49:00,
2013-02-01 09:04:00,12.6,4.0,30.40,NNW,329,7.0,-999.0,68,-99.99,,,0.00,weatherlink.com 1.10,2013-02-01 14:04:00,
2013-02-01 09:19:00,13.0,4.0,30.40,WNW,298,4.0,-999.0,68,-99.99,,,0.00,weatherlink.com 1.10,2013-02-01 14:19:00,
2013-02-01 09:34:00,13.2,4.0,30.41,West,281,8.0,-999.0,66,-99.99,,,0.00,weatherlink.com 1.10,2013-02-01 14:34:00,
2013-02-01 09:49:00,13.0,4.0,30.42,NW,316,10.0,-999.0,66,-99.99,,,0.00,weatherlink.com 1.10,2013-02-01 14:49:00,
2013-02-01 10:04:00,13.3,3.0,30.43,NW,305,10.0,-999.0,63,-99.99,,,0.00,weatherlink.com 1.10,2013-02-01 15:04:00,
2013-02-01 10:19:00,13.9,4.0,30.43,NW,317,11.0,-999.0,65,-99.99,,,0.00,weatherlink.com 1.10,2013-02-01 15:19:00,
2013-02-01 10:34:00,14.0,4.0,30.44,NW,315,7.0,-999.0,64,-99.99,,,0.00,weatherlink.com 1.10,2013-02-01 15:34:00,
2013-02-01 10:49:00,14.0,2.0,30.44,NW,309,6.0,-999.0,60,-99.99,,,0.00,weatherlink.com 1.10,2013-02-01 15:49:00,
2013-02-01 11:04:00,14.3,3.0,30.44,WNW,302,6.0,-999.0,61,-99.99,,,0.00,weatherlink.com 1.10,2013-02-01 16:04:00,
2013-02-01 11:19:00,14.6,3.0,30.44,WNW,286,9.0,-999.0,61,-99.99,,,0.00,weatherlink.com 1.10,2013-02-01 16:19:00,
2013-02-01 11:34:00,15.1,4.0,30.45,NW,319,8.0,-999.0,62,-99.99,,,0.00,weatherlink.com 1.10,2013-02-01 16:34:00,
2013-02-01 11:49:00,15.6,5.0,30.45,WSW,258,7.0,-999.0,63,-99.99,,,0.00,weatherlink.com 1.10,2013-02-01 16:49:00,
2013-02-01 12:04:00,15.8,4.0,30.46,West,262,7.0,-999.0,61,-99.99,,,0.00,weatherlink.com 1.10,2013-02-01 17:04:00,
2013-02-01 12:20:00,16.4,6.0,30.46,West,281,5.0,-999.0,63,-99.99,,,0.00,weatherlink.com 1.10,2013-02-01 17:20:00,
2013-02-01 12:34:00,16.7,5.0,30.45,WNW,282,6.0,-999.0,61,-99.99,,,0.00,weatherlink.com 1.10,2013-02-01 17:34:00,
2013-02-01 12:50:00,17.6,7.0,30.45,WNW,293,6.0,-999.0,63,-99.99,,,0.00,weatherlink.com 1.10,2013-02-01 17:50:00,
2013-02-01 13:05:00,17.7,7.0,30.44,West,279,14.0,-999.0,62,-99.99,,,0.00,weatherlink.com 1.10,2013-02-01 18:05:00,
2013-02-01 13:19:00,18.4,8.0,30.44,West,277,8.0,-999.0,63,-99.99,,,0.00,weatherlink.com 1.10,2013-02-01 18:19:00,
2013-02-01 13:34:00,18.8,7.0,30.43,West,275,8.0,-999.0,59,-99.99,,,0.00,weatherlink.com 1.10,2013-02-01 18:34:00,
2013-02-01 13:50:00,19.5,8.0,30.43,WSW,254,7.0,-999.0,60,-99.99,,,0.00,weatherlink.com 1.10,2013-02-01 18:50:00,
2013-02-01 14:04:00,19.7,7.0,30.42,West,275,7.0,-999.0,59,-99.99,,,0.00,weatherlink.com 1.10,2013-02-01 19:04:00,
2013-02-01 14:20:00,20.5,8.0,30.42,West,272,8.0,-999.0,58,-99.99,,,0.00,weatherlink.com 1.10,2013-02-01 19:20:00,
2013-02-01 14:35:00,20.7,7.0,30.41,WSW,248,6.0,-999.0,56,-99.99,,,0.00,weatherlink.com 1.10,2013-02-01 19:35:00,
2013-02-01 14:49:00,21.2,8.0,30.41,West,260,8.0,-999.0,57,-99.99,,,0.00,weatherlink.com 1.10,2013-02-01 19:49:00,
2013-02-01 15:04:00,21.5,9.0,30.40,NW,324,3.0,-999.0,58,-99.99,,,0.00,weatherlink.com 1.10,2013-02-01 20:04:00,
2013-02-01 15:20:00,22.0,9.0,30.41,West,271,5.0,-999.0,58,-99.99,,,0.00,weatherlink.com 1.10,2013-02-01 20:20:00,
2013-02-01 15:35:00,22.1,8.0,30.41,SW,228,7.0,-999.0,56,-99.99,,,0.00,weatherlink.com 1.10,2013-02-01 20:35:00,
2013-02-01 15:50:00,22.0,8.0,30.40,WSW,257,9.0,-999.0,56,-99.99,,,0.00,weatherlink.com 1.10,2013-02-01 20:50:00,
2013-02-01 16:05:00,22.4,9.0,30.40,WNW,284,6.0,-999.0,57,-99.99,,,0.00,weatherlink.com 1.10,2013-02-01 21:05:00,
2013-02-01 16:20:00,22.4,10.0,30.40,NW,323,5.0,-999.0,58,-99.99,,,0.00,weatherlink.com 1.10,2013-02-01 21:20:00,
2013-02-01 16:35:00,22.3,9.0,30.40,WNW,298,1.0,-999.0,57,-99.99,,,0.00,weatherlink.com 1.10,2013-02-01 21:35:00,
2013-02-01 16:50:00,22.4,10.0,30.40,WNW,298,8.0,-999.0,58,-99.99,,,0.00,weatherlink.com 1.10,2013-02-01 21:50:00,
2013-02-01 17:05:00,22.4,10.0,30.39,WNW,293,4.0,-999.0,58,-99.99,,,0.00,weatherlink.com 1.10,2013-02-01 22:05:00,
2013-02-01 17:20:00,22.5,10.0,30.39,WNW,284,4.0,-999.0,58,-99.99,,,0.00,weatherlink.com 1.10,2013-02-01 22:20:00,
2013-02-01 17:35:00,22.0,10.0,30.39,WNW,296,3.0,-999.0,60,-99.99,,,0.00,weatherlink.com 1.10,2013-02-01 22:35:00,
2013-02-01 17:50:00,21.6,10.0,30.39,WNW,294,2.0,-999.0,60,-99.99,,,0.00,weatherlink.com 1.10,2013-02-01 22:50:00,
2013-02-01 18:05:00,21.3,10.0,30.39,WNW,292,1.0,-999.0,61,-99.99,,,0.00,weatherlink.com 1.10,2013-02-01 23:05:00,
2013-02-01 18:20:00,21.0,10.0,30.40,WNW,292,3.0,-999.0,62,-99.99,,,0.00,weatherlink.com 1.10,2013-02-01 23:20:00,
2013-02-01 18:35:00,20.6,10.0,30.40,WNW,292,0.0,-999.0,63,-99.99,,,0.00,weatherlink.com 1.10,2013-02-01 23:35:00,
2013-02-01 18:50:00,19.4,10.0,30.40,WNW,292,0.0,-999.0,67,-99.99,,,0.00,weatherlink.com 1.10,2013-02-01 23:50:00,
2013-02-01 19:05:00,18.3,10.0,30.41,WNW,292,0.0,-999.0,69,-99.99,,,0.00,weatherlink.com 1.10,2013-02-02 00:05:00,
2013-02-01 19:20:00,17.3,10.0,30.41,WNW,292,0.0,-999.0,72,-99.99,,,0.00,weatherlink.com 1.10,2013-02-02 00:20:00,
2013-02-01 19:35:00,16.6,10.0,30.41,WNW,292,0.0,-999.0,75,-99.99,,,0.00,weatherlink.com 1.10,2013-02-02 00:35:00,
2013-02-01 19:50:00,16.1,10.0,30.41,WNW,292,0.0,-999.0,76,-99.99,,,0.00,weatherlink.com 1.10,2013-02-02 00:50:00,
2013-02-01 20:05:00,15.3,10.0,30.41,WNW,292,0.0,-999.0,78,-99.99,,,0.00,weatherlink.com 1.10,2013-02-02 01:05:00,
2013-02-01 20:20:00,15.0,10.0,30.40,WNW,292,0.0,-999.0,79,-99.99,,,0.00,weatherlink.com 1.10,2013-02-02 01:20:00,
2013-02-01 20:35:00,14.7,10.0,30.41,WNW,292,0.0,-999.0,81,-99.99,,,0.00,weatherlink.com 1.10,2013-02-02 01:35:00,
2013-02-01 20:50:00,14.3,12.0,30.41,WNW,292,0.0,-999.0,89,-99.99,,,0.00,weatherlink.com 1.10,2013-02-02 01:50:00,
2013-02-01 21:05:00,14.2,10.0,30.41,WNW,292,0.0,-999.0,82,-99.99,,,0.00,weatherlink.com 1.10,2013-02-02 02:05:00,
2013-02-01 21:20:00,13.7,9.0,30.41,WNW,292,0.0,-999.0,82,-99.99,,,0.00,weatherlink.com 1.10,2013-02-02 02:20:00,
2013-02-01 21:35:00,13.4,9.0,30.41,WNW,292,0.0,-999.0,84,-99.99,,,0.00,weatherlink.com 1.10,2013-02-02 02:35:00,
2013-02-01 21:50:00,13.5,10.0,30.40,WNW,292,0.0,-999.0,85,-99.99,,,0.00,weatherlink.com 1.10,2013-02-02 02:50:00,
2013-02-01 22:05:00,14.0,11.0,30.38,WNW,292,0.0,-999.0,86,-99.99,,,0.00,weatherlink.com 1.10,2013-02-02 03:05:00,
2013-02-01 22:20:00,14.9,12.0,30.38,WNW,292,0.0,-999.0,86,-99.99,,,0.00,weatherlink.com 1.10,2013-02-02 03:20:00,
2013-02-01 22:35:00,15.4,12.0,30.38,WNW,292,0.0,-999.0,85,-99.99,,,0.00,weatherlink.com 1.10,2013-02-02 03:35:00,
2013-02-01 22:50:00,15.9,12.0,30.38,WNW,292,0.0,-999.0,83,-99.99,,,0.00,weatherlink.com 1.10,2013-02-02 03:50:00,
2013-02-01 23:05:00,16.3,12.0,30.39,WNW,292,0.0,-999.0,83,-99.99,,,0.00,weatherlink.com 1.10,2013-02-02 04:05:00,
2013-02-01 23:20:00,16.3,12.0,30.39,WNW,292,0.0,-999.0,83,-99.99,,,0.00,weatherlink.com 1.10,2013-02-02 04:20:00,
2013-02-01 23:35:00,15.9,12.0,30.38,WNW,292,0.0,-999.0,83,-99.99,,,0.00,weatherlink.com 1.10,2013-02-02 04:35:00,
2013-02-01 23:50:00,15.8,12.0,30.38,WNW,292,0.0,-999.0,85,-99.99,,,0.00,weatherlink.com 1.10,2013-02-02 04:50:00,